User: anonymous   Login
Location: Drignac
(45.1667°N, 2.0333°E)
Time: 17:42:01
(UTC+00:00)
Language:

Okean 1-7 Rocket - Orbit

View from above orbital plane
View from above orbital plane
View from above satellite
View from above satellite

Ground track
Ground track

The orbit data is extracted from the following two-line orbital elements,

1 23318U 94066B   20196.12896468  .00000057  00000-0  45500-5 0  9995
2 23318  82.5399 207.1370 0024244 158.1887 202.0364 14.78874006388594
Epoch (UTC): 14 July 2020 03:05:42
Eccentricity: 0.0024244
inclination: 82.5399°
perigee height: 616 km
apogee height: 650 km
right ascension of ascending node: 207.1370°
argument of perigee: 158.1887°
revolutions per day: 14.78874006
mean anomaly at epoch: 202.0364°
orbit number at epoch: 38859

The dashed part of the orbit path shows where the satellite is in the earth's shadow,  

DLR